Location: Devore Heights
(34.2372°N, 117.4156°W)
Time: 08:37:29
(UTC+00:00)

A-11 Canister half - Pass Details

Date: 18 September 2024
Orbit: 1515 x 1684 km, 47.2° (Epoch: 07 October)

Event Time Altitude Azimuth Distance (km) Brightness Sun altitude
Rises 23:00:44 0° 196° (SSW) 4,821 12.1 33.5°
Reaches altitude 10° 23:04:20 10° 187° (S) 3,812 11.6 32.8°
Maximum altitude 23:12:27 31° 129° (SE) 2,466 10.1 31.3°
Drops below altitude 10° 23:20:20 10° 71° (ENE) 3,716 10.6 29.8°
Sets 23:23:46 0° 62° (ENE) 4,684 11.0 29.1°
